Overview Statistics Trail Chart Weather Telemetry Raw packets
 

This is the latest recevied weather packets stored in our database for station/object DB0OHL. If no packets are shown the sender has not sent any weather packets the latest 10 day(s).

<< 33 34 35 36 37 38 39 >>
Time Temp. Humidity Pressure Rain* Wind** Luminosity Snow
1777314353 13.89° C 57% 1019.6 hPa 0 mm - - -
1777313751 13.89° C 56% 1019.6 hPa 0 mm - - -
1777313148 14.44° C 56% 1019.6 hPa 0 mm - - -
1777312546 14.44° C 54% 1019.7 hPa 0 mm - - -
1777311943 14.44° C 53% 1019.7 hPa 0 mm - - -
1777311340 14.44° C 54% 1019.7 hPa 0 mm - - -
1777310738 14.44° C 54% 1019.8 hPa 0 mm - - -
1777310135 15° C 53% 1019.8 hPa 0 mm - - -
1777309533 15° C 52% 1020 hPa 0 mm - - -
1777308930 16.11° C 50% 1019.9 hPa 0 mm - - -
1777308328 16.11° C 48% 1019.9 hPa 0 mm - - -
1777307725 16.11° C 48% 1019.9 hPa 0 mm - - -
1777307122 16.67° C 48% 1019.8 hPa 0 mm - - -
1777306520 16.11° C 49% 1019.9 hPa 0 mm - - -
1777305917 16.11° C 49% 1020 hPa 0 mm - - -
1777305315 16.11° C 51% 1020 hPa 0 mm - - -
1777304773 16.67° C 47% 1020.2 hPa 0 mm - - -
1777304170 16.67° C 47% 1020.2 hPa 0 mm - - -
1777303568 16.11° C 47% 1020.3 hPa 0 mm - - -
1777302965 16.67° C 48% 1020.3 hPa 0 mm - - -
1777302362 17.78° C 47% 1020.5 hPa 0 mm - - -
1777301760 17.22° C 47% 1020.5 hPa 0 mm - - -
1777301157 17.78° C 48% 1020.7 hPa 0 mm - - -
1777300555 16.67° C 48% 1020.8 hPa 0 mm - - -
1777299954 17.78° C 47% 1020.8 hPa 0 mm - - -

* Rain latest hour (hover to see other rain measurements)
** Current wind speed in m/s (hover to see current wind gust speed)